#timestamp,LO_Frequency,Hit,StdDev 
1547596815.8,286046999.7,N
1547596835.7,286046999.8,N
1547596855.5,286047001.2,N
1547596875.3,286046998.9,N
1547596895.2,286047001.3,N
1547596915.9,286047003.2,Y
1547596935.7,286047004.9,P
1547596955.6,286047012.1,P
1547596975.4,286047015.1,P
1547596995.3,286047011.0,N
1547597015.1,286047012.2,N
1547597035.8,286047014.5,N
1547597055.7,286047018.2,Y
1547597075.5,286047007.6,P
1547597095.4,286047001.9,N
1547597115.2,286046998.4,N
1547597135.0,286046996.9,N
1547597135.9,286046996.9,N
1547597155.8,286046995.5,N
1547597175.6,286046993.6,N
1547597195.5,286046994.5,N
1547597215.3,286046991.8,N
1547597235.1,286046996.2,N
1547597255.9,286046996.1,N
1547597275.7,286046995.3,N
1547597295.5,286046998.5,N
1547597315.4,286047001.8,N
1547597335.2,286047000.4,N
1547597355.1,286046998.5,N
1547597356.0,286046998.5,N
1547597375.8,286046998.4,N
1547597395.6,286046998.5,N
1547597415.5,286046996.5,N
1547597435.3,286046997.6,N
1547597455.2,286046996.2,N
1547597475.9,286046993.5,N
1547597495.7,286046991.8,N
1547597515.6,286046993.3,N
1547597535.4,286046996.7,N
1547597555.2,286046997.1,N
1547597575.1,286046996.2,N
1547597576.0,286046996.2,N
1547597595.8,286046993.7,N
1547597615.7,286046994.8,N
1547597635.5,286046994.7,N
1547597655.3,286046992.1,Y
1547597675.2,286046998.0,P
1547597695.0,286046996.9,P
1547597695.9,286046996.9,P
1547597715.8,286046996.5,Y
1547597735.6,286046999.0,P
1547597755.4,286046996.7,P
1547597775.3,286046997.4,N
1547597795.1,286046997.2,Y
1547597815.8,286047000.1,P
1547597835.7,286047000.1,N
1547597855.5,286047002.6,N
1547597875.4,286047002.8,N
1547597895.2,286047000.0,N
1547597915.0,286047000.2,N
1547597915.9,286047000.2,N
1547597935.8,286046998.2,N
1547597955.6,286046998.1,N
1547597975.5,286046999.5,N
1547597995.3,286047000.9,N
1547598015.1,286047000.4,N
1547598035.9,286047000.4,N
1547598055.7,286047000.9,N
1547598075.5,286047000.9,N
1547598095.4,286047000.1,N
1547598115.2,286047001.0,N
1547598135.1,286046998.2,N
1547598136.0,286046998.2,N
1547598155.8,286047000.4,N
1547598175.6,286047002.0,N
1547598195.5,286047003.5,N
1547598215.3,286047005.0,Y
1547598235.1,286047005.5,P
1547598255.9,286047001.6,N
1547598275.7,286047000.4,N
1547598295.6,286046998.1,N
1547598315.4,286046998.7,N
1547598335.2,286046999.4,N
1547598355.1,286046996.7,N
1547598356.0,286046996.7,N
1547598375.8,286046998.0,N
1547598395.7,286046994.9,N
1547598415.5,286046996.1,N
1547598435.3,286046998.9,N
1547598455.2,286047002.6,N
1547598475.9,286047002.8,N
1547598495.7,286047000.2,N
1547598515.6,286047001.8,N
1547598535.4,286047000.2,N
1547598555.3,286047002.4,N
1547598575.1,286047003.9,N
1547598576.0,286047003.9,N
1547598595.8,286047003.7,N
1547598615.7,286047002.4,N
1547598635.5,286046999.8,N
1547598655.3,286047000.9,N
1547598675.2,286046996.5,N
1547598695.0,286047000.5,N
1547598695.9,286047000.5,N
1547598715.8,286047000.3,N
1547598735.6,286047000.9,N
1547598755.4,286047000.4,N
1547598775.3,286047000.6,N
1547598795.1,286047002.6,N
1547598815.8,286047002.7,N
1547598835.7,286047002.8,N
1547598855.5,286047000.8,N
1547598875.4,286046999.2,N
1547598895.2,286046999.0,N
1547598915.0,286046999.5,N
1547598915.9,286046999.5,N
1547598935.8,286046996.8,N
1547598955.6,286046997.9,N
1547598975.4,286046997.4,N
1547598995.3,286046996.6,N
1547599015.1,286046997.7,N
1547599035.9,286046995.4,N
1547599055.7,286046998.0,N
1547599075.5,286046995.0,N
1547599095.4,286046997.8,N
1547599115.2,286046995.0,N
1547599135.0,286046999.5,N
1547599136.0,286046999.5,N
1547599155.8,286047001.2,N
1547599175.6,286047000.4,N
1547599195.5,286046998.6,N
1547599215.3,286046999.2,N
1547599235.1,286046999.6,N
1547599255.9,286046997.0,N
1547599275.7,286046997.1,N
1547599295.6,286046996.5,N
1547599315.4,286046996.6,N
1547599335.2,286046996.5,N
1547599355.1,286046999.6,N
1547599356.0,286046999.6,N
1547599375.8,286046997.1,N
1547599395.7,286046996.5,N
1547599415.5,286047004.0,N
1547599435.3,286047008.9,Y
1547599455.2,286047010.8,P
1547599475.0,286047006.1,N
1547599475.9,286047006.1,N
1547599495.8,286047007.1,N
1547599515.6,286047003.4,N
1547599535.4,286047005.9,N
1547599555.3,286047002.9,N
1547599575.1,286047006.0,N
1547599595.8,286047005.7,N
1547599615.7,286047004.2,N
1547599635.5,286047002.9,N
1547599655.3,286047001.7,N
1547599675.2,286047002.2,N
1547599695.0,286047002.5,N
1547599695.9,286047002.5,N
1547599715.8,286047001.0,N
1547599735.6,286047000.4,N
1547599755.4,286047000.5,N
1547599775.3,286047000.6,N
1547599795.1,286047000.8,N
1547599815.9,286047001.0,N
1547599835.7,286047000.5,N
1547599855.5,286047001.0,N
1547599875.4,286047001.2,N
1547599895.2,286047001.0,N
1547599915.0,286046999.7,N
1547599915.9,286046999.7,N
1547599935.8,286047002.8,N
1547599955.6,286047000.5,N
1547599975.5,286046999.7,N
1547599995.3,286047000.4,N
1547600015.1,286047002.8,N
1547600035.9,286047002.7,N
1547600055.7,286047000.0,N
1547600075.5,286047000.7,N
1547600095.4,286047001.0,N
1547600115.2,286047002.5,N
1547600135.1,286047000.1,N
1547600166.0,286047000.0,E
1547600175.0,286047000.3,N
1547600175.9,286047000.3,P
1547600195.8,286047001.0,P
1547600215.6,286047001.2,Y
1547600235.4,286046998.9,P
1547600255.3,286046996.5,P
1547600275.1,286046999.4,N
1547600295.8,286046997.3,N
1547600315.7,286046997.1,N
1547600335.5,286046996.9,N
1547600355.4,286046998.3,N
1547600375.2,286047000.9,N
1547600395.0,286047000.3,N
1547600395.9,286047000.3,N
